Time,TemperatureF,DewpointF,PressureIn,WindDirection,WindDirectionDegrees,WindSpeedMPH,WindSpeedGustMPH,Humidity,HourlyPrecipIn,Conditions,Clouds,dailyrainin,SoftwareType,DateUTC
2013-02-25 00:00:00,34.1,30.4,29.88,North,355,0.0,0.0,86,0.00,,,0.00,Wunderground v.1.15,2013-02-25 08:00:00,
2013-02-25 00:02:00,34.1,30.4,29.88,North,355,0.0,0.0,86,0.00,,,0.00,Wunderground v.1.15,2013-02-25 08:02:00,
2013-02-25 00:04:00,34.6,30.6,29.88,North,355,0.0,0.0,85,0.00,,,0.00,Wunderground v.1.15,2013-02-25 08:04:00,
2013-02-25 00:06:00,34.0,30.3,29.88,North,355,0.0,0.0,86,0.00,,,0.00,Wunderground v.1.15,2013-02-25 08:06:00,
2013-02-25 00:08:00,33.8,30.1,29.89,North,355,0.0,0.0,86,0.00,,,0.00,Wunderground v.1.15,2013-02-25 08:08:00,
2013-02-25 00:10:00,33.8,30.1,29.89,North,355,0.0,0.0,86,0.00,,,0.00,Wunderground v.1.15,2013-02-25 08:10:00,
2013-02-25 00:12:00,34.4,30.4,29.88,North,355,0.0,0.0,85,0.00,,,0.00,Wunderground v.1.15,2013-02-25 08:12:00,
2013-02-25 00:14:00,33.7,30.0,29.89,North,355,0.0,0.0,86,0.00,,,0.00,Wunderground v.1.15,2013-02-25 08:14:00,
2013-02-25 00:16:00,33.7,30.0,29.89,North,355,0.0,0.0,86,0.00,,,0.00,Wunderground v.1.15,2013-02-25 08:16:00,
2013-02-25 00:18:00,33.7,30.0,29.89,North,355,0.0,0.0,86,0.00,,,0.00,Wunderground v.1.15,2013-02-25 08:18:00,
2013-02-25 00:20:00,34.3,30.3,29.89,North,355,0.0,0.0,85,0.00,,,0.00,Wunderground v.1.15,2013-02-25 08:20:00,
2013-02-25 00:22:00,33.5,29.8,29.89,North,355,0.0,0.0,86,0.00,,,0.00,Wunderground v.1.15,2013-02-25 08:22:00,
2013-02-25 00:24:00,33.4,29.7,29.89,North,355,0.0,0.0,86,0.00,,,0.00,Wunderground v.1.15,2013-02-25 08:24:00,
2013-02-25 00:26:00,33.4,29.7,29.89,North,355,0.0,0.0,86,0.00,,,0.00,Wunderground v.1.15,2013-02-25 08:26:00,
2013-02-25 00:28:00,33.2,29.5,29.89,North,355,0.0,0.0,86,0.00,,,0.00,Wunderground v.1.15,2013-02-25 08:28:00,
2013-02-25 00:30:00,33.1,29.4,29.90,North,355,0.0,0.0,86,0.00,,,0.00,Wunderground v.1.15,2013-02-25 08:30:00,
2013-02-25 00:32:00,33.1,29.4,29.89,North,355,0.0,0.0,86,0.00,,,0.00,Wunderground v.1.15,2013-02-25 08:32:00,
2013-02-25 00:34:00,33.1,29.4,29.89,North,355,0.0,0.0,86,0.00,,,0.00,Wunderground v.1.15,2013-02-25 08:34:00,
2013-02-25 00:36:00,33.1,29.4,29.89,North,355,0.0,0.0,86,0.00,,,0.00,Wunderground v.1.15,2013-02-25 08:36:00,
2013-02-25 00:38:00,33.1,29.7,29.89,North,355,0.0,0.0,87,0.00,,,0.00,Wunderground v.1.15,2013-02-25 08:38:00,
2013-02-25 00:40:00,33.1,29.7,29.89,North,355,0.0,0.0,87,0.00,,,0.00,Wunderground v.1.15,2013-02-25 08:40:00,
2013-02-25 00:42:00,33.2,30.0,29.89,North,355,0.0,0.0,88,0.00,,,0.00,Wunderground v.1.15,2013-02-25 08:42:00,
2013-02-25 00:44:00,33.2,30.0,29.89,North,355,0.0,0.0,88,0.00,,,0.00,Wunderground v.1.15,2013-02-25 08:44:00,
2013-02-25 00:46:00,33.4,30.2,29.89,North,355,0.0,0.0,88,0.00,,,0.00,Wunderground v.1.15,2013-02-25 08:46:00,
2013-02-25 00:48:00,33.4,30.2,29.89,North,355,0.0,0.0,88,0.00,,,0.00,Wunderground v.1.15,2013-02-25 08:48:00,
2013-02-25 00:50:00,33.2,29.8,29.89,North,355,0.0,0.0,87,0.00,,,0.00,Wunderground v.1.15,2013-02-25 08:50:00,
2013-02-25 00:52:00,33.2,29.8,29.89,North,355,0.0,0.0,87,0.00,,,0.00,Wunderground v.1.15,2013-02-25 08:52:00,
2013-02-25 00:54:00,33.1,29.7,29.89,North,355,0.0,0.0,87,0.00,,,0.00,Wunderground v.1.15,2013-02-25 08:54:00,
2013-02-25 00:56:00,32.9,29.5,29.89,North,355,0.0,0.0,87,0.00,,,0.00,Wunderground v.1.15,2013-02-25 08:56:00,
2013-02-25 00:58:00,32.8,29.4,29.89,North,355,0.0,0.0,87,0.00,,,0.00,Wunderground v.1.15,2013-02-25 08:58:00,
2013-02-25 01:00:00,32.8,29.4,29.89,North,355,0.0,0.0,87,0.00,,,0.00,Wunderground v.1.15,2013-02-25 09:00:00,
2013-02-25 01:02:00,32.7,29.3,29.90,North,355,0.0,0.0,87,0.00,,,0.00,Wunderground v.1.15,2013-02-25 09:02:00,
2013-02-25 01:06:00,32.5,29.1,29.90,North,355,0.0,0.0,87,0.00,,,0.00,Wunderground v.1.15,2013-02-25 09:06:00,
2013-02-25 01:08:00,32.5,29.1,29.89,North,355,0.0,0.0,87,0.00,,,0.00,Wunderground v.1.15,2013-02-25 09:08:00,
2013-02-25 01:10:00,32.5,29.3,29.89,North,355,0.0,0.0,88,0.00,,,0.00,Wunderground v.1.15,2013-02-25 09:10:00,
2013-02-25 01:12:00,32.5,29.3,29.89,North,355,0.0,0.0,88,0.00,,,0.00,Wunderground v.1.15,2013-02-25 09:12:00,
2013-02-25 01:14:00,32.7,29.5,29.89,North,355,0.0,0.0,88,0.00,,,0.00,Wunderground v.1.15,2013-02-25 09:14:00,
2013-02-25 01:16:00,32.7,29.5,29.89,North,355,0.0,0.0,88,0.00,,,0.00,Wunderground v.1.15,2013-02-25 09:16:00,
2013-02-25 01:18:00,32.7,29.5,29.89,North,355,0.0,0.0,88,0.00,,,0.00,Wunderground v.1.15,2013-02-25 09:18:00,
2013-02-25 01:20:00,32.7,29.5,29.89,North,355,0.0,0.0,88,0.00,,,0.00,Wunderground v.1.15,2013-02-25 09:20:00,
2013-02-25 01:22:00,32.7,29.8,29.89,North,355,0.0,0.0,89,0.00,,,0.00,Wunderground v.1.15,2013-02-25 09:22:00,
2013-02-25 01:24:00,32.7,29.5,29.89,North,355,0.0,0.0,88,0.00,,,0.00,Wunderground v.1.15,2013-02-25 09:24:00,
2013-02-25 01:26:00,32.7,29.8,29.89,North,355,0.0,0.0,89,0.00,,,0.00,Wunderground v.1.15,2013-02-25 09:26:00,
2013-02-25 01:28:00,32.7,29.5,29.89,North,355,0.0,0.0,88,0.00,,,0.00,Wunderground v.1.15,2013-02-25 09:28:00,
2013-02-25 01:30:00,32.7,29.5,29.89,North,355,0.0,0.0,88,0.00,,,0.00,Wunderground v.1.15,2013-02-25 09:30:00,
2013-02-25 01:32:00,32.7,29.5,29.89,North,355,0.0,0.0,88,0.00,,,0.00,Wunderground v.1.15,2013-02-25 09:32:00,
2013-02-25 01:34:00,32.5,29.3,29.89,North,355,0.0,0.0,88,0.00,,,0.00,Wunderground v.1.15,2013-02-25 09:34:00,
2013-02-25 01:36:00,32.5,29.3,29.89,North,355,0.0,0.0,88,0.00,,,0.00,Wunderground v.1.15,2013-02-25 09:36:00,
2013-02-25 01:38:00,32.5,29.3,29.89,North,355,0.0,0.0,88,0.00,,,0.00,Wunderground v.1.15,2013-02-25 09:38:00,
2013-02-25 01:40:00,32.5,29.3,29.89,North,355,0.0,0.0,88,0.00,,,0.00,Wunderground v.1.15,2013-02-25 09:40:00,
2013-02-25 01:42:00,32.4,29.2,29.89,North,355,0.0,0.0,88,0.00,,,0.00,Wunderground v.1.15,2013-02-25 09:42:00,
2013-02-25 01:44:00,32.4,29.2,29.89,North,355,0.0,0.0,88,0.00,,,0.00,Wunderground v.1.15,2013-02-25 09:44:00,
2013-02-25 01:46:00,32.4,29.2,29.89,North,355,0.0,0.0,88,0.00,,,0.00,Wunderground v.1.15,2013-02-25 09:46:00,
2013-02-25 01:48:00,32.2,29.0,29.90,North,355,0.0,0.0,88,0.00,,,0.00,Wunderground v.1.15,2013-02-25 09:48:00,
2013-02-25 01:50:00,32.2,29.0,29.90,North,355,0.0,0.0,88,0.00,,,0.00,Wunderground v.1.15,2013-02-25 09:50:00,
2013-02-25 01:52:00,32.2,29.0,29.89,North,355,0.0,0.0,88,0.00,,,0.00,Wunderground v.1.15,2013-02-25 09:52:00,
2013-02-25 01:54:00,32.1,28.9,29.89,North,355,0.0,0.0,88,0.00,,,0.00,Wunderground v.1.15,2013-02-25 09:54:00,
2013-02-25 01:56:00,32.1,28.9,29.90,North,355,0.0,0.0,88,0.00,,,0.00,Wunderground v.1.15,2013-02-25 09:56:00,
2013-02-25 01:58:00,32.1,28.9,29.90,North,355,0.0,0.0,88,0.00,,,0.00,Wunderground v.1.15,2013-02-25 09:58:00,
2013-02-25 02:00:00,31.9,28.8,29.90,North,355,0.0,0.0,88,0.00,,,0.00,Wunderground v.1.15,2013-02-25 10:00:00,
2013-02-25 02:04:00,31.8,28.7,29.90,North,355,0.0,0.0,88,0.00,,,0.00,Wunderground v.1.15,2013-02-25 10:04:00,
2013-02-25 02:06:00,31.8,28.7,29.89,North,355,0.0,0.0,88,0.00,,,0.00,Wunderground v.1.15,2013-02-25 10:06:00,
2013-02-25 02:08:00,31.8,28.9,29.89,North,355,0.0,0.0,89,0.00,,,0.00,Wunderground v.1.15,2013-02-25 10:08:00,
2013-02-25 02:10:00,31.8,28.9,29.89,North,355,0.0,0.0,89,0.00,,,0.00,Wunderground v.1.15,2013-02-25 10:10:00,
2013-02-25 02:18:00,31.6,28.7,29.89,North,355,0.0,0.0,89,0.00,,,0.00,Wunderground v.1.15,2013-02-25 10:18:00,
2013-02-25 02:22:00,31.6,28.7,29.89,NNW,342,0.0,0.0,89,0.00,,,0.00,Wunderground v.1.15,2013-02-25 10:22:00,
2013-02-25 02:34:00,31.9,29.3,29.89,NNW,341,0.0,0.0,90,0.00,,,0.00,Wunderground v.1.15,2013-02-25 10:34:00,
2013-02-25 02:44:00,31.8,28.9,29.88,NNW,341,0.0,0.0,89,0.00,,,0.00,Wunderground v.1.15,2013-02-25 10:44:00,
2013-02-25 02:51:00,31.9,28.8,29.90,North,355,0.0,0.0,88,0.00,,,0.00,Wunderground v.1.15,2013-02-25 10:51:00,
2013-02-25 03:01:00,31.8,28.9,29.89,North,355,0.0,0.0,89,0.00,,,0.00,Wunderground v.1.15,2013-02-25 11:01:00,
2013-02-25 03:02:00,31.2,28.3,29.88,NNW,341,0.0,0.0,89,0.00,,,0.00,Wunderground v.1.15,2013-02-25 11:02:00,
2013-02-25 03:09:00,31.6,28.7,29.89,North,355,0.0,0.0,89,0.00,,,0.00,Wunderground v.1.15,2013-02-25 11:09:00,
2013-02-25 03:10:00,31.0,28.1,29.88,NNW,341,0.0,0.0,89,0.00,,,0.00,Wunderground v.1.15,2013-02-25 11:10:00,
2013-02-25 03:14:00,31.2,28.6,29.87,NNW,340,0.0,0.0,90,0.00,,,0.00,Wunderground v.1.15,2013-02-25 11:14:00,
2013-02-25 03:15:00,31.8,28.9,29.89,NNW,338,0.0,1.0,89,0.00,,,0.00,Wunderground v.1.15,2013-02-25 11:15:00,
2013-02-25 03:21:00,31.9,29.3,29.89,NNW,341,0.0,0.0,90,0.00,,,0.00,Wunderground v.1.15,2013-02-25 11:21:00,
2013-02-25 03:27:00,31.9,29.0,29.88,NNW,341,0.0,0.0,89,0.00,,,0.00,Wunderground v.1.15,2013-02-25 11:27:00,
2013-02-25 03:28:00,31.2,28.6,29.86,NNW,340,0.0,0.0,90,0.00,,,0.00,Wunderground v.1.15,2013-02-25 11:28:00,
2013-02-25 03:35:00,31.8,28.9,29.88,NNW,341,0.0,0.0,89,0.00,,,0.00,Wunderground v.1.15,2013-02-25 11:35:00,
2013-02-25 03:41:00,31.5,28.6,29.88,NNW,340,0.0,0.0,89,0.00,,,0.00,Wunderground v.1.15,2013-02-25 11:41:00,
2013-02-25 03:47:00,31.3,28.4,29.88,NNW,341,0.0,0.0,89,0.00,,,0.00,Wunderground v.1.15,2013-02-25 11:47:00,
2013-02-25 03:53:00,31.2,28.3,29.88,NNW,340,0.0,0.0,89,0.00,,,0.00,Wunderground v.1.15,2013-02-25 11:53:00,
2013-02-25 04:01:00,31.0,28.1,29.88,NNW,340,0.0,0.0,89,0.00,,,0.00,Wunderground v.1.15,2013-02-25 12:01:00,
2013-02-25 04:07:00,31.2,28.6,29.87,NNW,341,0.0,0.0,90,0.00,,,0.00,Wunderground v.1.15,2013-02-25 12:07:00,
2013-02-25 04:13:00,31.2,28.6,29.87,NNW,340,0.0,0.0,90,0.00,,,0.00,Wunderground v.1.15,2013-02-25 12:13:00,
2013-02-25 04:19:00,31.2,28.6,29.87,NNW,340,0.0,0.0,90,0.00,,,0.00,Wunderground v.1.15,2013-02-25 12:19:00,
2013-02-25 04:25:00,31.0,28.4,29.87,NNW,340,0.0,0.0,90,0.00,,,0.00,Wunderground v.1.15,2013-02-25 12:25:00,
2013-02-25 04:31:00,30.9,28.3,29.88,NNW,330,0.0,0.0,90,0.00,,,0.00,Wunderground v.1.15,2013-02-25 12:31:00,
2013-02-25 04:37:00,30.7,28.1,29.88,NNW,330,0.0,0.0,90,0.00,,,0.00,Wunderground v.1.15,2013-02-25 12:37:00,
2013-02-25 04:43:00,30.7,28.1,29.88,NNW,330,0.0,0.0,90,0.00,,,0.00,Wunderground v.1.15,2013-02-25 12:43:00,
2013-02-25 04:51:00,30.9,28.6,29.89,NNW,330,0.0,0.0,91,0.00,,,0.00,Wunderground v.1.15,2013-02-25 12:51:00,
2013-02-25 04:57:00,31.6,29.3,29.89,NNW,330,0.0,0.0,91,0.00,,,0.00,Wunderground v.1.15,2013-02-25 12:57:00,
2013-02-25 05:03:00,32.1,30.0,29.89,NNW,330,0.0,0.0,92,0.00,,,0.00,Wunderground v.1.15,2013-02-25 13:03:00,
2013-02-25 05:09:00,32.1,29.8,29.89,NNW,330,0.0,0.0,91,0.00,,,0.00,Wunderground v.1.15,2013-02-25 13:09:00,
2013-02-25 05:15:00,32.2,29.9,29.89,NNW,330,0.0,0.0,91,0.00,,,0.00,Wunderground v.1.15,2013-02-25 13:15:00,
2013-02-25 05:21:00,32.4,30.1,29.89,NNW,330,0.0,0.0,91,0.00,,,0.00,Wunderground v.1.15,2013-02-25 13:21:00,
2013-02-25 05:27:00,32.4,30.1,29.89,NNW,330,0.0,0.0,91,0.00,,,0.00,Wunderground v.1.15,2013-02-25 13:27:00,
2013-02-25 05:33:00,32.2,29.9,29.90,NNW,330,0.0,0.0,91,0.00,,,0.00,Wunderground v.1.15,2013-02-25 13:33:00,
2013-02-25 05:39:00,32.1,29.8,29.90,NNW,330,0.0,0.0,91,0.00,,,0.00,Wunderground v.1.15,2013-02-25 13:39:00,
2013-02-25 05:45:00,32.1,29.8,29.90,NNW,330,0.0,0.0,91,0.00,,,0.00,Wunderground v.1.15,2013-02-25 13:45:00,
2013-02-25 05:51:00,31.9,29.6,29.90,NNW,330,0.0,0.0,91,0.00,,,0.00,Wunderground v.1.15,2013-02-25 13:51:00,
2013-02-25 05:57:00,31.8,29.5,29.90,NNW,330,0.0,0.0,91,0.00,,,0.00,Wunderground v.1.15,2013-02-25 13:57:00,
2013-02-25 06:03:00,31.5,28.9,29.91,NNW,330,0.0,1.0,90,0.00,,,0.00,Wunderground v.1.15,2013-02-25 14:03:00,
2013-02-25 06:13:00,31.0,28.7,29.91,NNW,330,0.0,0.0,91,0.00,,,0.00,Wunderground v.1.15,2013-02-25 14:13:00,
2013-02-25 06:19:00,31.0,28.7,29.91,NNW,330,0.0,0.0,91,0.00,,,0.00,Wunderground v.1.15,2013-02-25 14:19:00,
2013-02-25 06:25:00,31.0,28.7,29.91,NNW,330,0.0,0.0,91,0.00,,,0.00,Wunderground v.1.15,2013-02-25 14:25:00,
2013-02-25 06:31:00,31.2,28.9,29.91,NNW,330,0.0,0.0,91,0.00,,,0.00,Wunderground v.1.15,2013-02-25 14:31:00,
2013-02-25 06:37:00,31.3,29.2,29.91,SE,131,0.0,0.0,92,0.00,,,0.00,Wunderground v.1.15,2013-02-25 14:37:00,
2013-02-25 06:43:00,31.9,29.8,29.91,ESE,119,0.0,1.0,92,0.00,,,0.00,Wunderground v.1.15,2013-02-25 14:43:00,
2013-02-25 06:49:00,32.2,30.1,29.91,ESE,119,0.0,0.0,92,0.00,,,0.00,Wunderground v.1.15,2013-02-25 14:49:00,
2013-02-25 06:55:00,32.2,30.1,29.90,ESE,119,0.0,0.0,92,0.00,,,0.00,Wunderground v.1.15,2013-02-25 14:55:00,
2013-02-25 07:01:00,32.1,30.0,29.91,ESE,120,0.0,0.0,92,0.00,,,0.00,Wunderground v.1.15,2013-02-25 15:01:00,
2013-02-25 07:07:00,32.1,30.0,29.91,ESE,120,0.0,0.0,92,0.00,,,0.00,Wunderground v.1.15,2013-02-25 15:07:00,
2013-02-25 07:13:00,32.1,30.0,29.91,ESE,120,0.0,0.0,92,0.00,,,0.00,Wunderground v.1.15,2013-02-25 15:13:00,
2013-02-25 07:19:00,32.2,30.1,29.91,ESE,120,0.0,0.0,92,0.00,,,0.00,Wunderground v.1.15,2013-02-25 15:19:00,
2013-02-25 07:25:00,32.5,30.4,29.91,ESE,120,0.0,0.0,92,0.00,,,0.00,Wunderground v.1.15,2013-02-25 15:25:00,
2013-02-25 07:31:00,33.2,31.1,29.91,ESE,120,0.0,0.0,92,0.00,,,0.00,Wunderground v.1.15,2013-02-25 15:31:00,
2013-02-25 07:37:00,33.7,31.6,29.90,ESE,120,0.0,0.0,92,0.00,,,0.00,Wunderground v.1.15,2013-02-25 15:37:00,
2013-02-25 07:43:00,33.7,31.6,29.90,ESE,120,0.0,0.0,92,0.00,,,0.00,Wunderground v.1.15,2013-02-25 15:43:00,
2013-02-25 07:49:00,34.1,32.0,29.91,ESE,120,0.0,0.0,92,0.00,,,0.00,Wunderground v.1.15,2013-02-25 15:49:00,
2013-02-25 07:55:00,34.7,32.6,29.91,ESE,120,0.0,0.0,92,0.00,,,0.00,Wunderground v.1.15,2013-02-25 15:55:00,
2013-02-25 08:01:00,35.8,33.7,29.91,ESE,120,0.0,0.0,92,0.00,,,0.00,Wunderground v.1.15,2013-02-25 16:01:00,
2013-02-25 08:07:00,36.8,34.7,29.91,ESE,120,0.0,0.0,92,0.00,,,0.00,Wunderground v.1.15,2013-02-25 16:07:00,
2013-02-25 08:13:00,37.5,35.4,29.91,ESE,120,0.0,0.0,92,0.00,,,0.00,Wunderground v.1.15,2013-02-25 16:13:00,
2013-02-25 08:19:00,38.2,35.8,29.91,ESE,120,0.0,0.0,91,0.00,,,0.00,Wunderground v.1.15,2013-02-25 16:19:00,
2013-02-25 08:25:00,38.9,36.2,29.91,ESE,120,0.0,0.0,90,0.00,,,0.00,Wunderground v.1.15,2013-02-25 16:25:00,
2013-02-25 08:31:00,40.3,37.3,29.90,ESE,120,0.0,0.0,89,0.00,,,0.00,Wunderground v.1.15,2013-02-25 16:31:00,
2013-02-25 08:37:00,41.9,38.0,29.90,SW,215,0.0,6.0,86,0.00,,,0.00,Wunderground v.1.15,2013-02-25 16:37:00,
2013-02-25 08:43:00,44.1,36.0,29.90,West,275,2.0,5.0,73,0.00,,,0.00,Wunderground v.1.15,2013-02-25 16:43:00,
2013-02-25 08:49:00,46.0,36.0,29.90,WNW,284,5.0,5.0,68,0.00,,,0.00,Wunderground v.1.15,2013-02-25 16:49:00,
2013-02-25 08:55:00,47.3,36.5,29.90,WSW,250,4.0,5.0,66,0.00,,,0.00,Wunderground v.1.15,2013-02-25 16:55:00,
2013-02-25 09:01:00,48.0,36.0,29.90,SW,221,3.0,5.0,63,0.00,,,0.00,Wunderground v.1.15,2013-02-25 17:01:00,
2013-02-25 09:07:00,48.8,36.8,29.90,NW,311,4.0,7.0,63,0.00,,,0.00,Wunderground v.1.15,2013-02-25 17:07:00,
2013-02-25 09:13:00,49.1,36.2,29.89,West,273,4.0,6.0,61,0.00,,,0.00,Wunderground v.1.15,2013-02-25 17:13:00,
2013-02-25 09:19:00,49.2,36.3,29.89,West,280,5.0,5.0,61,0.00,,,0.00,Wunderground v.1.15,2013-02-25 17:19:00,
2013-02-25 09:25:00,49.6,36.3,29.89,West,278,4.0,5.0,60,0.00,,,0.00,Wunderground v.1.15,2013-02-25 17:25:00,
2013-02-25 09:31:00,50.1,36.7,29.89,WNW,286,3.0,3.0,60,0.00,,,0.00,Wunderground v.1.15,2013-02-25 17:31:00,
2013-02-25 09:37:00,50.7,36.9,29.89,SW,236,3.0,6.0,59,0.00,,,0.00,Wunderground v.1.15,2013-02-25 17:37:00,
2013-02-25 09:43:00,51.1,37.7,29.89,NW,310,4.0,6.0,60,0.00,,,0.00,Wunderground v.1.15,2013-02-25 17:43:00,
2013-02-25 09:49:00,51.3,37.0,29.89,WNW,291,5.0,9.0,58,0.00,,,0.00,Wunderground v.1.15,2013-02-25 17:49:00,
2013-02-25 09:55:00,51.6,37.3,29.89,West,265,6.0,9.0,58,0.00,,,0.00,Wunderground v.1.15,2013-02-25 17:55:00,
2013-02-25 10:01:00,51.7,37.8,29.89,WNW,299,6.0,8.0,59,0.00,,,0.00,Wunderground v.1.15,2013-02-25 18:01:00,
2013-02-25 10:07:00,52.0,37.2,29.89,WNW,285,7.0,11.0,57,0.00,,,0.00,Wunderground v.1.15,2013-02-25 18:07:00,
2013-02-25 10:13:00,52.3,38.0,29.89,West,277,6.0,9.0,58,0.00,,,0.00,Wunderground v.1.15,2013-02-25 18:13:00,
2013-02-25 10:19:00,52.8,37.5,29.89,WNW,290,7.0,7.0,56,0.00,,,0.00,Wunderground v.1.15,2013-02-25 18:19:00,
2013-02-25 10:25:00,53.3,38.4,29.89,West,269,7.0,7.0,57,0.00,,,0.00,Wunderground v.1.15,2013-02-25 18:25:00,
2013-02-25 10:31:00,53.5,38.6,29.89,WNW,299,7.0,7.0,57,0.00,,,0.00,Wunderground v.1.15,2013-02-25 18:31:00,
2013-02-25 10:37:00,54.1,38.3,29.89,WNW,292,7.0,7.0,55,0.00,,,0.00,Wunderground v.1.15,2013-02-25 18:37:00,
2013-02-25 10:43:00,54.5,39.1,29.88,WNW,294,7.0,11.0,56,0.00,,,0.00,Wunderground v.1.15,2013-02-25 18:43:00,
2013-02-25 10:49:00,54.8,38.9,29.88,West,263,7.0,10.0,55,0.00,,,0.00,Wunderground v.1.15,2013-02-25 18:49:00,
2013-02-25 10:55:00,55.3,39.9,29.88,West,267,7.0,10.0,56,0.00,,,0.00,Wunderground v.1.15,2013-02-25 18:55:00,
2013-02-25 11:01:00,55.6,39.2,29.88,WNW,284,7.0,7.0,54,0.00,,,0.00,Wunderground v.1.15,2013-02-25 19:01:00,
2013-02-25 11:07:00,56.0,39.1,29.88,WNW,290,7.0,12.0,53,0.00,,,0.00,Wunderground v.1.15,2013-02-25 19:07:00,
2013-02-25 11:13:00,56.5,40.5,29.87,West,266,7.0,8.0,55,0.00,,,0.00,Wunderground v.1.15,2013-02-25 19:13:00,
2013-02-25 11:19:00,57.2,41.2,29.87,SW,215,6.0,8.0,55,0.00,,,0.00,Wunderground v.1.15,2013-02-25 19:19:00,
2013-02-25 11:25:00,57.6,40.6,29.87,SW,227,6.0,10.0,53,0.00,,,0.00,Wunderground v.1.15,2013-02-25 19:25:00,
2013-02-25 11:31:00,58.0,41.0,29.87,West,264,6.0,7.0,53,0.00,,,0.00,Wunderground v.1.15,2013-02-25 19:31:00,
2013-02-25 11:37:00,58.4,39.8,29.87,WSW,246,6.0,7.0,50,0.00,,,0.00,Wunderground v.1.15,2013-02-25 19:37:00,
2013-02-25 11:43:00,58.7,40.6,29.87,West,260,7.0,10.0,51,0.00,,,0.00,Wunderground v.1.15,2013-02-25 19:43:00,
2013-02-25 11:49:00,59.5,41.3,29.87,WNW,294,6.0,9.0,51,0.00,,,0.00,Wunderground v.1.15,2013-02-25 19:49:00,
2013-02-25 11:55:00,59.9,40.7,29.87,NW,304,6.0,9.0,49,0.00,,,0.00,Wunderground v.1.15,2013-02-25 19:55:00,
2013-02-25 12:01:00,60.1,40.3,29.87,West,264,6.0,9.0,48,0.00,,,0.00,Wunderground v.1.15,2013-02-25 20:01:00,
2013-02-25 12:07:00,60.5,40.2,29.86,NW,305,5.0,9.0,47,0.00,,,0.00,Wunderground v.1.15,2013-02-25 20:07:00,
2013-02-25 12:13:00,60.5,39.6,29.86,West,277,6.0,6.0,46,0.00,,,0.00,Wunderground v.1.15,2013-02-25 20:13:00,
2013-02-25 12:19:00,61.2,40.2,29.86,WNW,303,5.0,6.0,46,0.00,,,0.00,Wunderground v.1.15,2013-02-25 20:19:00,
2013-02-25 12:25:00,61.2,40.2,29.85,West,277,5.0,6.0,46,0.00,,,0.00,Wunderground v.1.15,2013-02-25 20:25:00,
2013-02-25 12:31:00,61.6,39.5,29.85,WSW,239,5.0,5.0,44,0.00,,,0.00,Wunderground v.1.15,2013-02-25 20:31:00,
2013-02-25 12:37:00,62.1,38.7,29.85,WSW,255,5.0,9.0,42,0.00,,,0.00,Wunderground v.1.15,2013-02-25 20:37:00,
2013-02-25 12:43:00,62.1,39.3,29.84,WSW,253,5.0,8.0,43,0.00,,,0.00,Wunderground v.1.15,2013-02-25 20:43:00,
2013-02-25 12:49:00,62.4,39.0,29.84,West,279,6.0,6.0,42,0.00,,,0.00,Wunderground v.1.15,2013-02-25 20:49:00,
2013-02-25 12:55:00,62.6,39.8,29.84,WNW,291,6.0,11.0,43,0.00,,,0.00,Wunderground v.1.15,2013-02-25 20:55:00,
2013-02-25 13:01:00,63.1,39.0,29.83,WNW,292,7.0,7.0,41,0.00,,,0.00,Wunderground v.1.15,2013-02-25 21:01:00,
2013-02-25 13:07:00,63.4,38.6,29.84,West,261,6.0,7.0,40,0.00,,,0.00,Wunderground v.1.15,2013-02-25 21:07:00,
2013-02-25 13:13:00,63.5,37.4,29.84,NW,311,6.0,8.0,38,0.00,,,0.00,Wunderground v.1.15,2013-02-25 21:13:00,
2013-02-25 13:19:00,63.5,37.4,29.84,WNW,290,7.0,7.0,38,0.00,,,0.00,Wunderground v.1.15,2013-02-25 21:19:00,
2013-02-25 13:25:00,63.7,38.3,29.83,WSW,255,7.0,9.0,39,0.00,,,0.00,Wunderground v.1.15,2013-02-25 21:25:00,
2013-02-25 13:31:00,63.9,37.8,29.83,SW,217,7.0,14.0,38,0.00,,,0.00,Wunderground v.1.15,2013-02-25 21:31:00,
2013-02-25 13:37:00,64.5,36.9,29.83,NW,311,6.0,14.0,36,0.00,,,0.00,Wunderground v.1.15,2013-02-25 21:37:00,
2013-02-25 13:43:00,64.8,37.2,29.83,NW,317,6.0,6.0,36,0.00,,,0.00,Wunderground v.1.15,2013-02-25 21:43:00,
2013-02-25 13:49:00,65.3,36.9,29.83,West,275,5.0,10.0,35,0.00,,,0.00,Wunderground v.1.15,2013-02-25 21:49:00,
2013-02-25 13:55:00,65.3,36.9,29.83,WNW,284,6.0,10.0,35,0.00,,,0.00,Wunderground v.1.15,2013-02-25 21:55:00,
2013-02-25 14:01:00,65.6,35.7,29.83,West,277,6.0,6.0,33,0.00,,,0.00,Wunderground v.1.15,2013-02-25 22:01:00,
2013-02-25 14:07:00,65.6,35.7,29.83,WNW,284,7.0,7.0,33,0.00,,,0.00,Wunderground v.1.15,2013-02-25 22:07:00,
2013-02-25 14:13:00,66.0,34.5,29.82,West,277,6.0,7.0,31,0.00,,,0.00,Wunderground v.1.15,2013-02-25 22:13:00,
2013-02-25 14:19:00,66.6,36.6,29.82,West,279,4.0,4.0,33,0.00,,,0.00,Wunderground v.1.15,2013-02-25 22:19:00,
2013-02-25 14:25:00,66.9,35.3,29.82,West,267,5.0,9.0,31,0.00,,,0.00,Wunderground v.1.15,2013-02-25 22:25:00,
2013-02-25 14:31:00,67.3,34.8,29.82,West,270,5.0,5.0,30,0.00,,,0.00,Wunderground v.1.15,2013-02-25 22:31:00,
2013-02-25 14:37:00,67.3,33.1,29.82,West,278,5.0,12.0,28,0.00,,,0.00,Wunderground v.1.15,2013-02-25 22:37:00,
2013-02-25 14:43:00,66.9,34.4,29.82,NW,304,7.0,8.0,30,0.00,,,0.00,Wunderground v.1.15,2013-02-25 22:43:00,
2013-02-25 14:49:00,66.6,35.0,29.82,WNW,290,6.0,6.0,31,0.00,,,0.00,Wunderground v.1.15,2013-02-25 22:49:00,
2013-02-25 14:55:00,66.8,35.2,29.81,West,270,5.0,6.0,31,0.00,,,0.00,Wunderground v.1.15,2013-02-25 22:55:00,
2013-02-25 15:01:00,67.6,33.3,29.81,WNW,292,4.0,4.0,28,0.00,,,0.00,Wunderground v.1.15,2013-02-25 23:01:00,
2013-02-25 15:07:00,67.8,32.6,29.81,West,259,4.0,6.0,27,0.00,,,0.00,Wunderground v.1.15,2013-02-25 23:07:00,
2013-02-25 15:13:00,67.3,31.2,29.81,SW,230,4.0,5.0,26,0.00,,,0.00,Wunderground v.1.15,2013-02-25 23:13:00,
2013-02-25 15:19:00,67.8,32.6,29.81,WNW,300,4.0,5.0,27,0.00,,,0.00,Wunderground v.1.15,2013-02-25 23:19:00,
2013-02-25 15:25:00,67.4,31.3,29.81,West,265,5.0,8.0,26,0.00,,,0.00,Wunderground v.1.15,2013-02-25 23:25:00,
2013-02-25 15:31:00,67.3,32.1,29.81,NE,48,6.0,6.0,27,0.00,,,0.00,Wunderground v.1.15,2013-02-25 23:31:00,
2013-02-25 15:37:00,68.1,30.9,29.80,WSW,255,2.0,6.0,25,0.00,,,0.00,Wunderground v.1.15,2013-02-25 23:37:00,
2013-02-25 15:43:00,68.4,31.2,29.80,West,263,2.0,2.0,25,0.00,,,0.00,Wunderground v.1.15,2013-02-25 23:43:00,
2013-02-25 15:49:00,68.4,33.1,29.80,WSW,258,3.0,3.0,27,0.00,,,0.00,Wunderground v.1.15,2013-02-25 23:49:00,
2013-02-25 15:55:00,69.3,32.9,29.80,ENE,63,1.0,3.0,26,0.00,,,0.00,Wunderground v.1.15,2013-02-25 23:55:00,
2013-02-25 16:01:00,69.4,39.0,29.80,SE,138,1.0,4.0,33,0.00,,,0.00,Wunderground v.1.15,2013-02-26 00:01:00,
2013-02-25 16:07:00,67.8,40.6,29.80,SSW,207,2.0,5.0,37,0.00,,,0.00,Wunderground v.1.15,2013-02-26 00:07:00,
2013-02-25 16:13:00,67.1,37.8,29.80,South,183,2.0,2.0,34,0.00,,,0.00,Wunderground v.1.15,2013-02-26 00:13:00,
2013-02-25 16:19:00,67.1,39.9,29.80,SSW,207,1.0,1.0,37,0.00,,,0.00,Wunderground v.1.15,2013-02-26 00:19:00,
2013-02-25 16:25:00,66.9,38.3,29.80,South,170,1.0,1.0,35,0.00,,,0.00,Wunderground v.1.15,2013-02-26 00:25:00,
2013-02-25 16:31:00,67.1,39.9,29.80,WNW,283,0.0,3.0,37,0.00,,,0.00,Wunderground v.1.15,2013-02-26 00:31:00,
2013-02-25 16:37:00,66.4,42.0,29.80,SSE,148,1.0,3.0,41,0.00,,,0.00,Wunderground v.1.15,2013-02-26 00:37:00,
2013-02-25 16:43:00,64.2,41.8,29.80,SSW,200,3.0,5.0,44,0.00,,,0.00,Wunderground v.1.15,2013-02-26 00:43:00,
2013-02-25 16:49:00,63.7,42.5,29.80,South,172,2.0,2.0,46,0.00,,,0.00,Wunderground v.1.15,2013-02-26 00:49:00,
2013-02-25 16:55:00,63.4,43.4,29.80,SE,135,1.0,3.0,48,0.00,,,0.00,Wunderground v.1.15,2013-02-26 00:55:00,
2013-02-25 17:01:00,62.7,43.8,29.80,SE,136,2.0,4.0,50,0.00,,,0.00,Wunderground v.1.15,2013-02-26 01:01:00,
2013-02-25 17:07:00,61.6,43.3,29.80,SE,138,4.0,5.0,51,0.00,,,0.00,Wunderground v.1.15,2013-02-26 01:07:00,
2013-02-25 17:13:00,61.2,43.4,29.80,SE,143,4.0,4.0,52,0.00,,,0.00,Wunderground v.1.15,2013-02-26 01:13:00,
2013-02-25 17:19:00,60.7,43.5,29.80,SE,142,3.0,9.0,53,0.00,,,0.00,Wunderground v.1.15,2013-02-26 01:19:00,
2013-02-25 17:25:00,60.1,42.9,29.80,SE,124,3.0,9.0,53,0.00,,,0.00,Wunderground v.1.15,2013-02-26 01:25:00,
2013-02-25 17:31:00,59.5,42.8,29.80,South,169,3.0,4.0,54,0.00,,,0.00,Wunderground v.1.15,2013-02-26 01:31:00,
2013-02-25 17:37:00,59.0,42.4,29.80,South,174,3.0,4.0,54,0.00,,,0.00,Wunderground v.1.15,2013-02-26 01:37:00,
2013-02-25 17:43:00,58.7,42.1,29.81,SE,125,2.0,3.0,54,0.00,,,0.00,Wunderground v.1.15,2013-02-26 01:43:00,
2013-02-25 17:49:00,58.3,42.2,29.81,ESE,117,1.0,1.0,55,0.00,,,0.00,Wunderground v.1.15,2013-02-26 01:49:00,
2013-02-25 17:55:00,57.8,42.2,29.81,ESE,117,0.0,1.0,56,0.00,,,0.00,Wunderground v.1.15,2013-02-26 01:55:00,
2013-02-25 18:01:00,57.3,41.7,29.81,ESE,117,0.0,0.0,56,0.00,,,0.00,Wunderground v.1.15,2013-02-26 02:01:00,
2013-02-25 18:07:00,56.9,41.8,29.81,ESE,117,0.0,0.0,57,0.00,,,0.00,Wunderground v.1.15,2013-02-26 02:07:00,
2013-02-25 18:13:00,56.5,41.9,29.82,ESE,117,0.0,0.0,58,0.00,,,0.00,Wunderground v.1.15,2013-02-26 02:13:00,
2013-02-25 18:19:00,55.6,41.9,29.82,ESE,117,0.0,0.0,60,0.00,,,0.00,Wunderground v.1.15,2013-02-26 02:19:00,
2013-02-25 18:25:00,54.2,41.5,29.82,ESE,117,0.0,0.0,62,0.00,,,0.00,Wunderground v.1.15,2013-02-26 02:25:00,
2013-02-25 18:31:00,53.3,41.4,29.83,ESE,117,0.0,0.0,64,0.00,,,0.00,Wunderground v.1.15,2013-02-26 02:31:00,
2013-02-25 18:37:00,52.3,41.3,29.83,ESE,117,0.0,0.0,66,0.00,,,0.00,Wunderground v.1.15,2013-02-26 02:37:00,
2013-02-25 18:43:00,51.1,41.3,29.83,ESE,117,0.0,0.0,69,0.00,,,0.00,Wunderground v.1.15,2013-02-26 02:43:00,
2013-02-25 18:49:00,50.4,41.0,29.83,ESE,117,0.0,0.0,70,0.00,,,0.00,Wunderground v.1.15,2013-02-26 02:49:00,
2013-02-25 18:55:00,49.6,40.6,29.83,ESE,117,0.0,0.0,71,0.00,,,0.00,Wunderground v.1.15,2013-02-26 02:55:00,
2013-02-25 19:01:00,48.9,40.6,29.83,ESE,117,0.0,0.0,73,0.00,,,0.00,Wunderground v.1.15,2013-02-26 03:01:00,
2013-02-25 19:07:00,48.3,40.4,29.83,ESE,117,0.0,0.0,74,0.00,,,0.00,Wunderground v.1.15,2013-02-26 03:07:00,
2013-02-25 19:13:00,48.0,40.1,29.83,ESE,117,0.0,0.0,74,0.00,,,0.00,Wunderground v.1.15,2013-02-26 03:13:00,
2013-02-25 19:19:00,47.6,40.1,29.83,ESE,117,0.0,0.0,75,0.00,,,0.00,Wunderground v.1.15,2013-02-26 03:19:00,
2013-02-25 19:25:00,47.3,39.8,29.83,ESE,117,0.0,0.0,75,0.00,,,0.00,Wunderground v.1.15,2013-02-26 03:25:00,
2013-02-25 19:31:00,47.3,40.5,29.83,ESE,117,0.0,0.0,77,0.00,,,0.00,Wunderground v.1.15,2013-02-26 03:31:00,
2013-02-25 19:37:00,47.0,39.8,29.83,ESE,117,0.0,0.0,76,0.00,,,0.00,Wunderground v.1.15,2013-02-26 03:37:00,
2013-02-25 19:43:00,46.5,39.7,29.83,ESE,117,0.0,0.0,77,0.00,,,0.00,Wunderground v.1.15,2013-02-26 03:43:00,
2013-02-25 19:49:00,46.1,39.3,29.83,ESE,117,0.0,0.0,77,0.00,,,0.00,Wunderground v.1.15,2013-02-26 03:49:00,
2013-02-25 19:55:00,45.7,39.2,29.84,ESE,117,0.0,0.0,78,0.00,,,0.00,Wunderground v.1.15,2013-02-26 03:55:00,
2013-02-25 20:01:00,45.1,39.3,29.84,ESE,117,0.0,0.0,80,0.00,,,0.00,Wunderground v.1.15,2013-02-26 04:01:00,
2013-02-25 20:07:00,44.8,39.0,29.84,ESE,117,0.0,0.0,80,0.00,,,0.00,Wunderground v.1.15,2013-02-26 04:07:00,
2013-02-25 20:12:00,41.9,37.7,29.85,ESE,117,0.0,0.0,85,0.00,,,0.00,Wunderground v.1.15,2013-02-26 04:12:00,
2013-02-25 20:13:00,44.6,39.1,29.84,ESE,117,0.0,0.0,81,0.00,,,0.00,Wunderground v.1.15,2013-02-26 04:13:00,
2013-02-25 20:14:00,41.8,37.6,29.85,ESE,117,0.0,0.0,85,0.00,,,0.00,Wunderground v.1.15,2013-02-26 04:14:00,
2013-02-25 20:16:00,41.8,37.6,29.85,ESE,117,0.0,0.0,85,0.00,,,0.00,Wunderground v.1.15,2013-02-26 04:16:00,
2013-02-25 20:18:00,41.8,37.6,29.85,ESE,117,0.0,0.0,85,0.00,,,0.00,Wunderground v.1.15,2013-02-26 04:18:00,
2013-02-25 20:19:00,44.5,39.0,29.84,ESE,117,0.0,0.0,81,0.00,,,0.00,Wunderground v.1.15,2013-02-26 04:19:00,
2013-02-25 20:20:00,41.6,37.4,29.85,ESE,117,0.0,0.0,85,0.00,,,0.00,Wunderground v.1.15,2013-02-26 04:20:00,
2013-02-25 20:22:00,41.6,37.7,29.85,ESE,117,0.0,0.0,86,0.00,,,0.00,Wunderground v.1.15,2013-02-26 04:22:00,
2013-02-25 20:24:00,41.6,38.0,29.85,ESE,117,0.0,0.0,87,0.00,,,0.00,Wunderground v.1.15,2013-02-26 04:24:00,
2013-02-25 20:25:00,44.2,38.7,29.84,ESE,117,0.0,0.0,81,0.00,,,0.00,Wunderground v.1.15,2013-02-26 04:25:00,
2013-02-25 20:26:00,41.8,38.2,29.85,ESE,117,0.0,0.0,87,0.00,,,0.00,Wunderground v.1.15,2013-02-26 04:26:00,
2013-02-25 20:28:00,41.8,38.2,29.85,ESE,117,0.0,0.0,87,0.00,,,0.00,Wunderground v.1.15,2013-02-26 04:28:00,
2013-02-25 20:30:00,41.8,38.2,29.85,ESE,117,0.0,0.0,87,0.00,,,0.00,Wunderground v.1.15,2013-02-26 04:30:00,
2013-02-25 20:31:00,43.8,38.3,29.84,ESE,117,0.0,0.0,81,0.00,,,0.00,Wunderground v.1.15,2013-02-26 04:31:00,
2013-02-25 20:32:00,41.8,38.2,29.85,ESE,117,0.0,0.0,87,0.00,,,0.00,Wunderground v.1.15,2013-02-26 04:32:00,
2013-02-25 20:34:00,41.8,38.2,29.85,ESE,117,0.0,0.0,87,0.00,,,0.00,Wunderground v.1.15,2013-02-26 04:34:00,
2013-02-25 20:36:00,41.8,38.2,29.85,ESE,117,0.0,0.0,87,0.00,,,0.00,Wunderground v.1.15,2013-02-26 04:36:00,
2013-02-25 20:37:00,43.3,38.2,29.84,ESE,117,0.0,0.0,82,0.00,,,0.00,Wunderground v.1.15,2013-02-26 04:37:00,
2013-02-25 20:38:00,41.6,37.7,29.85,ESE,117,0.0,0.0,86,0.00,,,0.00,Wunderground v.1.15,2013-02-26 04:38:00,
2013-02-25 20:40:00,41.6,37.7,29.85,ESE,117,0.0,0.0,86,0.00,,,0.00,Wunderground v.1.15,2013-02-26 04:40:00,
2013-02-25 20:42:00,41.3,37.1,29.85,ESE,117,0.0,0.0,85,0.00,,,0.00,Wunderground v.1.15,2013-02-26 04:42:00,
2013-02-25 20:43:00,42.8,37.7,29.84,ESE,117,0.0,0.0,82,0.00,,,0.00,Wunderground v.1.15,2013-02-26 04:43:00,
2013-02-25 20:44:00,41.2,37.0,29.85,ESE,117,0.0,0.0,85,0.00,,,0.00,Wunderground v.1.15,2013-02-26 04:44:00,
2013-02-25 20:46:00,41.1,37.2,29.85,ESE,117,0.0,0.0,86,0.00,,,0.00,Wunderground v.1.15,2013-02-26 04:46:00,
2013-02-25 20:48:00,40.9,37.0,29.85,ESE,117,0.0,0.0,86,0.00,,,0.00,Wunderground v.1.15,2013-02-26 04:48:00,
2013-02-25 20:49:00,42.3,37.8,29.84,ESE,117,0.0,0.0,84,0.00,,,0.00,Wunderground v.1.15,2013-02-26 04:49:00,
2013-02-25 20:50:00,40.8,36.9,29.85,ESE,117,0.0,0.0,86,0.00,,,0.00,Wunderground v.1.15,2013-02-26 04:50:00,
2013-02-25 20:52:00,40.8,36.9,29.85,ESE,117,0.0,0.0,86,0.00,,,0.00,Wunderground v.1.15,2013-02-26 04:52:00,
2013-02-25 20:54:00,40.6,36.7,29.85,ESE,117,0.0,0.0,86,0.00,,,0.00,Wunderground v.1.15,2013-02-26 04:54:00,
2013-02-25 20:55:00,42.1,37.6,29.85,ESE,117,0.0,0.0,84,0.00,,,0.00,Wunderground v.1.15,2013-02-26 04:55:00,
2013-02-25 20:56:00,40.6,36.7,29.85,ESE,117,0.0,0.0,86,0.00,,,0.00,Wunderground v.1.15,2013-02-26 04:56:00,
2013-02-25 20:58:00,40.5,36.6,29.85,ESE,117,0.0,0.0,86,0.00,,,0.00,Wunderground v.1.15,2013-02-26 04:58:00,
2013-02-25 21:00:00,40.2,36.3,29.85,ESE,117,0.0,0.0,86,0.00,,,0.00,Wunderground v.1.15,2013-02-26 05:00:00,
2013-02-25 21:02:00,40.1,36.2,29.85,ESE,117,0.0,0.0,86,0.00,,,0.00,Wunderground v.1.15,2013-02-26 05:02:00,
2013-02-25 21:04:00,39.9,36.1,29.85,ESE,117,0.0,0.0,86,0.00,,,0.00,Wunderground v.1.15,2013-02-26 05:04:00,
2013-02-25 21:06:00,39.8,36.2,29.86,ESE,117,0.0,0.0,87,0.00,,,0.00,Wunderground v.1.15,2013-02-26 05:06:00,
2013-02-25 21:08:00,39.8,36.2,29.86,ESE,117,0.0,0.0,87,0.00,,,0.00,Wunderground v.1.15,2013-02-26 05:08:00,
2013-02-25 21:10:00,39.6,36.0,29.85,ESE,117,0.0,0.0,87,0.00,,,0.00,Wunderground v.1.15,2013-02-26 05:10:00,
2013-02-25 21:12:00,39.6,36.3,29.85,ESE,117,0.0,0.0,88,0.00,,,0.00,Wunderground v.1.15,2013-02-26 05:12:00,
2013-02-25 21:14:00,39.5,36.2,29.85,ESE,117,0.0,0.0,88,0.00,,,0.00,Wunderground v.1.15,2013-02-26 05:14:00,
2013-02-25 21:16:00,39.5,36.2,29.85,ESE,117,0.0,0.0,88,0.00,,,0.00,Wunderground v.1.15,2013-02-26 05:16:00,
2013-02-25 21:18:00,39.5,36.2,29.85,ESE,117,0.0,0.0,88,0.00,,,0.00,Wunderground v.1.15,2013-02-26 05:18:00,
2013-02-25 21:20:00,39.3,35.8,29.86,ESE,117,0.0,0.0,87,0.00,,,0.00,Wunderground v.1.15,2013-02-26 05:20:00,
2013-02-25 21:22:00,39.2,35.7,29.86,ESE,117,0.0,0.0,87,0.00,,,0.00,Wunderground v.1.15,2013-02-26 05:22:00,
2013-02-25 21:24:00,39.1,35.6,29.86,ESE,117,0.0,0.0,87,0.00,,,0.00,Wunderground v.1.15,2013-02-26 05:24:00,
2013-02-25 21:26:00,38.9,35.6,29.86,ESE,117,0.0,0.0,88,0.00,,,0.00,Wunderground v.1.15,2013-02-26 05:26:00,
2013-02-25 21:28:00,38.8,35.6,29.86,ESE,117,0.0,0.0,88,0.00,,,0.00,Wunderground v.1.15,2013-02-26 05:28:00,
2013-02-25 21:30:00,38.6,35.4,29.86,ESE,117,0.0,0.0,88,0.00,,,0.00,Wunderground v.1.15,2013-02-26 05:30:00,
2013-02-25 21:32:00,38.5,35.3,29.85,ESE,117,0.0,0.0,88,0.00,,,0.00,Wunderground v.1.15,2013-02-26 05:32:00,
2013-02-25 21:34:00,38.5,35.5,29.85,ESE,117,0.0,0.0,89,0.00,,,0.00,Wunderground v.1.15,2013-02-26 05:34:00,
2013-02-25 21:36:00,38.3,35.1,29.85,ESE,117,0.0,0.0,88,0.00,,,0.00,Wunderground v.1.15,2013-02-26 05:36:00,
2013-02-25 21:38:00,38.3,35.1,29.85,ESE,117,0.0,0.0,88,0.00,,,0.00,Wunderground v.1.15,2013-02-26 05:38:00,
2013-02-25 21:40:00,38.2,35.2,29.85,ESE,117,0.0,0.0,89,0.00,,,0.00,Wunderground v.1.15,2013-02-26 05:40:00,
2013-02-25 21:42:00,38.0,35.0,29.85,ESE,117,0.0,0.0,89,0.00,,,0.00,Wunderground v.1.15,2013-02-26 05:42:00,
2013-02-25 21:44:00,38.0,35.0,29.85,ESE,117,0.0,0.0,89,0.00,,,0.00,Wunderground v.1.15,2013-02-26 05:44:00,
2013-02-25 21:46:00,38.0,35.0,29.85,ESE,117,0.0,0.0,89,0.00,,,0.00,Wunderground v.1.15,2013-02-26 05:46:00,
2013-02-25 21:48:00,37.9,34.9,29.86,ESE,117,0.0,0.0,89,0.00,,,0.00,Wunderground v.1.15,2013-02-26 05:48:00,
2013-02-25 21:50:00,37.9,34.9,29.86,ESE,117,0.0,0.0,89,0.00,,,0.00,Wunderground v.1.15,2013-02-26 05:50:00,
2013-02-25 21:52:00,37.9,34.9,29.86,ESE,117,0.0,0.0,89,0.00,,,0.00,Wunderground v.1.15,2013-02-26 05:52:00,
2013-02-25 21:54:00,37.9,34.9,29.85,ESE,117,0.0,0.0,89,0.00,,,0.00,Wunderground v.1.15,2013-02-26 05:54:00,
2013-02-25 21:56:00,38.0,35.3,29.85,ESE,117,0.0,0.0,90,0.00,,,0.00,Wunderground v.1.15,2013-02-26 05:56:00,
2013-02-25 21:58:00,38.0,35.0,29.85,ESE,117,0.0,0.0,89,0.00,,,0.00,Wunderground v.1.15,2013-02-26 05:58:00,
2013-02-25 22:00:00,37.8,34.8,29.86,ESE,117,0.0,0.0,89,0.00,,,0.00,Wunderground v.1.15,2013-02-26 06:00:00,
2013-02-25 22:02:00,37.6,34.7,29.86,ESE,117,0.0,0.0,89,0.00,,,0.00,Wunderground v.1.15,2013-02-26 06:02:00,
2013-02-25 22:04:00,37.5,34.6,29.86,ESE,117,0.0,0.0,89,0.00,,,0.00,Wunderground v.1.15,2013-02-26 06:04:00,
2013-02-25 22:06:00,37.5,34.6,29.86,ESE,117,0.0,0.0,89,0.00,,,0.00,Wunderground v.1.15,2013-02-26 06:06:00,
2013-02-25 22:08:00,37.5,34.8,29.86,ESE,117,0.0,0.0,90,0.00,,,0.00,Wunderground v.1.15,2013-02-26 06:08:00,
2013-02-25 22:10:00,37.5,34.8,29.86,ESE,117,0.0,0.0,90,0.00,,,0.00,Wunderground v.1.15,2013-02-26 06:10:00,
2013-02-25 22:12:00,37.5,34.8,29.86,ESE,117,0.0,0.0,90,0.00,,,0.00,Wunderground v.1.15,2013-02-26 06:12:00,
2013-02-25 22:14:00,37.6,35.2,29.86,ESE,117,0.0,0.0,91,0.00,,,0.00,Wunderground v.1.15,2013-02-26 06:14:00,
2013-02-25 22:16:00,37.8,35.4,29.86,ESE,117,0.0,0.0,91,0.00,,,0.00,Wunderground v.1.15,2013-02-26 06:16:00,
2013-02-25 22:18:00,37.9,35.5,29.86,ESE,117,0.0,0.0,91,0.00,,,0.00,Wunderground v.1.15,2013-02-26 06:18:00,
2013-02-25 22:20:00,37.9,35.5,29.86,ESE,117,0.0,0.0,91,0.00,,,0.00,Wunderground v.1.15,2013-02-26 06:20:00,
2013-02-25 22:22:00,38.0,35.6,29.85,ESE,117,0.0,0.0,91,0.00,,,0.00,Wunderground v.1.15,2013-02-26 06:22:00,
2013-02-25 22:24:00,38.0,35.6,29.85,ESE,117,0.0,0.0,91,0.00,,,0.00,Wunderground v.1.15,2013-02-26 06:24:00,
2013-02-25 22:26:00,38.0,35.6,29.85,ESE,117,0.0,0.0,91,0.00,,,0.00,Wunderground v.1.15,2013-02-26 06:26:00,
2013-02-25 22:28:00,38.0,35.6,29.85,ESE,117,0.0,0.0,91,0.00,,,0.00,Wunderground v.1.15,2013-02-26 06:28:00,
2013-02-25 22:30:00,37.9,35.2,29.85,ESE,117,0.0,0.0,90,0.00,,,0.00,Wunderground v.1.15,2013-02-26 06:30:00,
2013-02-25 22:32:00,37.8,35.1,29.85,ESE,117,0.0,0.0,90,0.00,,,0.00,Wunderground v.1.15,2013-02-26 06:32:00,
2013-02-25 22:34:00,37.3,34.4,29.85,ESE,117,0.0,0.0,89,0.00,,,0.00,Wunderground v.1.15,2013-02-26 06:34:00,
2013-02-25 22:36:00,37.0,34.1,29.86,ESE,117,0.0,0.0,89,0.00,,,0.00,Wunderground v.1.15,2013-02-26 06:36:00,
2013-02-25 22:40:00,36.5,33.6,29.86,ESE,117,0.0,0.0,89,0.00,,,0.00,Wunderground v.1.15,2013-02-26 06:40:00,
2013-02-25 22:46:00,36.0,33.4,29.85,ESE,117,0.0,0.0,90,0.00,,,0.00,Wunderground v.1.15,2013-02-26 06:46:00,
2013-02-25 22:48:00,35.9,33.0,29.85,ESE,117,0.0,0.0,89,0.00,,,0.00,Wunderground v.1.15,2013-02-26 06:48:00,
2013-02-25 22:52:00,35.8,33.2,29.85,ESE,117,0.0,0.0,90,0.00,,,0.00,Wunderground v.1.15,2013-02-26 06:52:00,
2013-02-25 22:56:00,35.8,33.2,29.85,ESE,117,0.0,0.0,90,0.00,,,0.00,Wunderground v.1.15,2013-02-26 06:56:00,
2013-02-25 22:58:00,35.9,33.5,29.86,ESE,117,0.0,0.0,91,0.00,,,0.00,Wunderground v.1.15,2013-02-26 06:58:00,
2013-02-25 23:00:00,35.9,33.5,29.86,ESE,117,0.0,0.0,91,0.00,,,0.00,Wunderground v.1.15,2013-02-26 07:00:00,
2013-02-25 23:06:00,36.0,33.6,29.86,ESE,117,0.0,0.0,91,0.00,,,0.00,Wunderground v.1.15,2013-02-26 07:06:00,
2013-02-25 23:20:00,35.8,33.4,29.86,ESE,117,0.0,0.0,91,0.00,,,0.00,Wunderground v.1.15,2013-02-26 07:20:00,
2013-02-25 23:24:00,35.6,33.2,29.86,ESE,117,0.0,0.0,91,0.00,,,0.00,Wunderground v.1.15,2013-02-26 07:24:00,
2013-02-25 23:27:00,36.8,33.9,29.86,ESE,117,0.0,0.0,89,0.00,,,0.00,Wunderground v.1.15,2013-02-26 07:27:00,
2013-02-25 23:33:00,36.2,33.3,29.85,ESE,117,0.0,0.0,89,0.00,,,0.00,Wunderground v.1.15,2013-02-26 07:33:00,
2013-02-25 23:36:00,35.2,32.8,29.85,ESE,117,0.0,0.0,91,0.00,,,0.00,Wunderground v.1.15,2013-02-26 07:36:00,
2013-02-25 23:39:00,35.9,33.3,29.85,ESE,117,0.0,0.0,90,0.00,,,0.00,Wunderground v.1.15,2013-02-26 07:39:00,
2013-02-25 23:51:00,35.9,33.5,29.86,ESE,117,0.0,0.0,91,0.00,,,0.00,Wunderground v.1.15,2013-02-26 07:51:00,
2013-02-25 23:57:00,36.0,33.6,29.85,ESE,117,0.0,0.0,91,0.00,,,0.00,Wunderground v.1.15,2013-02-26 07:57:00,